LA5NNA Weather Reports


Display with metric or nautical units.
time (UTC)temp
F
wind
direction
speed
MPH
gust
MPH
rain 1hr
in
rain 24hr
in
rain mn
in
humidity
%
barometer
mb
20260505223507 42 322 6.0 9.0 0.00 0.00 0.00 61 1012.4
20260505223011 42 325 5.0 9.0 0.00 0.00 0.00 61 1012.6
20260505222507 42 321 2.0 13.0 0.00 0.00 0.00 61 1012.6
20260505222008 42 336 3.0 9.0 0.00 0.00 0.00 61 1012.3
20260505221507 42 342 5.0 10.0 0.00 0.00 0.00 61 1012.3
20260505221007 42 335 3.0 10.0 0.00 0.00 0.00 61 1012.5
20260505220012 42 338 7.0 13.0 0.00 0.00 0.00 60 1012.3
20260505215507 42 328 5.0 12.0 0.00 0.00 0.00 60 1012.5
20260505215008 42 327 6.0 13.0 0.00 0.00 0.00 60 1012.5
20260505214507 42 326 5.0 13.0 0.00 0.00 0.00 60 1012.5
20260505214007 43 327 7.0 12.0 0.00 0.00 0.00 60 1012.4
20260505213507 43 326 7.0 13.0 0.00 0.00 0.00 60 1012.3
20260505213011 43 335 7.0 13.0 0.00 0.00 0.00 60 1012.4
20260505212508 43 331 5.0 12.0 0.00 0.00 0.00 60 1012.4
20260505212008 43 318 7.0 12.0 0.00 0.00 0.00 60 1012.4
20260505211008 43 326 5.0 13.0 0.00 0.00 0.00 62 1012.5
20260505210507 43 324 6.0 10.0 0.00 0.00 0.00 62 1012.4
20260505210011 43 324 6.0 10.0 0.00 0.00 0.00 62 1012.3
20260505205508 43 322 7.0 10.0 0.00 0.00 0.00 62 1012.2
20260505205007 43 319 6.0 9.0 0.00 0.00 0.00 62 1012.2
20260505204508 43 319 7.0 12.0 0.00 0.00 0.00 63 1012.2
20260505204007 44 318 8.0 10.0 0.00 0.00 0.00 63 1012.1
20260505203507 44 323 9.0 12.0 0.00 0.00 0.00 63 1012.0
20260505203011 44 318 8.0 12.0 0.00 0.00 0.00 63 1012.1
20260505202507 44 313 9.0 13.0 0.00 0.00 0.00 63 1012.1
20260505202008 44 311 9.0 13.0 0.00 0.00 0.00 63 1012.0
20260505201008 44 319 12.0 15.0 0.00 0.00 0.00 64 1011.8
20260505200507 44 318 11.0 16.0 0.00 0.00 0.00 64 1011.8
20260505200011 44 316 10.0 15.0 0.00 0.00 0.00 65 1011.7
20260505195507 44 321 10.0 15.0 0.00 0.00 0.00 65 1011.6
20260505195007 44 319 10.0 16.0 0.00 0.00 0.00 65 1011.7
20260505194507 44 317 12.0 16.0 0.00 0.00 0.00 66 1011.7
20260505194007 44 314 11.0 16.0 0.00 0.00 0.00 65 1011.6
20260505193507 44 315 10.0 17.0 0.00 0.00 0.00 65 1011.6
20260505193011 44 316 12.0 16.0 0.00 0.00 0.00 65 1011.6
20260505192007 44 311 11.0 16.0 0.00 0.00 0.00 64 1011.6
20260505191507 45 311 12.0 17.0 0.00 0.00 0.00 64 1011.7
20260505190011 45 312 12.0 18.0 0.00 0.00 0.00 63 1011.4
20260505185007 45 314 12.0 20.0 0.00 0.00 0.00 63 1011.3
20260505184507 45 318 13.0 17.0 0.00 0.00 0.00 64 1011.2
20260505184007 45 311 12.0 16.0 0.00 0.00 0.00 63 1011.3
20260505183507 45 302 10.0 16.0 0.00 0.00 0.00 63 1011.3
20260505182507 46 300 13.0 20.0 0.00 0.00 0.00 63 1011.2
20260505181507 46 304 15.0 22.0 0.00 0.00 0.00 64 1011.2
20260505181007 46 309 14.0 20.0 0.00 0.00 0.00 64 1011.3
20260505180507 46 304 12.0 20.0 0.00 0.00 0.00 64 1011.3
20260505180011 46 311 12.0 21.0 0.00 0.00 0.00 65 1011.2
20260505175507 46 296 14.0 18.0 0.00 0.00 0.00 65 1011.3
20260505175007 46 299 15.0 20.0 0.00 0.00 0.00 66 1011.3
20260505174507 46 300 15.0 20.0 0.00 0.00 0.00 67 1011.2
20260505173507 46 301 17.0 23.0 0.00 0.00 0.00 66 1011.2
20260505173011 46 304 18.0 25.0 0.00 0.00 0.00 66 1011.2
20260505172507 46 303 17.0 23.0 0.00 0.00 0.00 65 1011.2
20260505172007 47 291 18.0 24.0 0.00 0.00 0.00 65 1011.2
20260505171507 47 301 14.0 23.0 0.00 0.00 0.00 64 1011.2
20260505171007 47 302 16.0 23.0 0.00 0.00 0.00 64 1011.3
20260505170507 47 301 13.0 21.0 0.00 0.00 0.00 64 1011.3
20260505170010 47 293 14.0 21.0 0.00 0.00 0.00 64 1011.2
20260505165506 47 299 15.0 21.0 0.00 0.00 0.00 64 1011.1
20260505165007 47 290 16.0 21.0 0.00 0.00 0.00 63 1011.1
20260505164507 47 304 18.0 26.0 0.00 0.00 0.00 63 1011.1
20260505164007 47 299 20.0 26.0 0.00 0.00 0.00 63 1011.0
20260505163506 48 298 18.0 26.0 0.00 0.00 0.00 63 1011.0
20260505163010 48 298 18.0 28.0 0.00 0.00 0.00 63 1011.2
20260505162507 48 293 18.0 24.0 0.00 0.00 0.00 63 1011.2
20260505162007 48 292 16.0 25.0 0.00 0.00 0.00 63 1011.1
20260505161507 48 301 17.0 25.0 0.00 0.00 0.00 63 1011.3
20260505161007 48 305 19.0 25.0 0.00 0.00 0.00 64 1011.1
20260505153010 48 299 19.0 26.0 0.00 0.00 0.00 63 1011.2
20260505152506 48 301 17.0 23.0 0.00 0.00 0.00 63 1011.3
20260505152007 48 298 19.0 28.0 0.00 0.00 0.00 64 1011.2
20260505151507 48 296 18.0 24.0 0.00 0.00 0.00 64 1011.3
20260505151007 48 302 17.0 24.0 0.00 0.00 0.00 65 1011.3
20260505150507 48 289 17.0 24.0 0.00 0.00 0.00 65 1011.4
20260505140506 49 284 18.0 24.0 0.00 0.00 0.00 65 1011.3
20260505125007 48 278 12.0 21.0 0.00 0.00 0.00 67 1011.6
20260505124006 47 294 16.0 24.0 0.00 0.00 0.00 66 1011.4
20260505123507 47 296 17.0 22.0 0.00 0.00 0.00 66 1011.5
20260505123010 47 296 16.0 22.0 0.00 0.00 0.00 66 1011.5
20260505122507 47 290 13.0 21.0 0.00 0.00 0.00 66 1011.5
20260505122006 47 288 15.0 21.0 0.00 0.00 0.00 66 1011.5
20260505121007 47 300 13.0 21.0 0.00 0.00 0.00 67 1011.4
20260505120506 46 291 13.0 21.0 0.00 0.00 0.00 66 1011.4
20260505120010 46 295 16.0 21.0 0.00 0.00 0.00 67 1011.6
20260505115506 46 289 15.0 21.0 0.00 0.00 0.00 66 1011.6
20260505115007 46 285 14.0 24.0 0.00 0.00 0.00 66 1011.6
20260505114506 46 287 14.0 22.0 0.00 0.00 0.00 66 1011.6
20260505114007 46 289 13.0 22.0 0.00 0.00 0.00 66 1011.7
20260505113506 46 283 13.0 20.0 0.00 0.00 0.00 66 1011.6
20260505113010 47 291 13.0 22.0 0.00 0.00 0.00 66 1011.6
20260505112007 46 295 16.0 22.0 0.00 0.00 0.00 67 1011.6
20260505111006 46 289 15.0 23.0 0.00 0.00 0.00 68 1011.5
20260505110506 46 275 14.0 24.0 0.00 0.00 0.00 68 1011.5
20260505102007 46 266 13.0 20.0 0.00 0.00 0.00 67 1011.4
20260505101006 46 267 12.0 18.0 0.00 0.00 0.00 67 1011.2
20260505100506 46 269 10.0 20.0 0.00 0.00 0.00 66 1011.3
20260505100011 45 272 10.0 20.0 0.00 0.00 0.00 66 1011.3
20260505095506 45 266 10.0 17.0 0.00 0.00 0.00 65 1011.3
20260505094506 45 261 10.0 17.0 0.00 0.00 0.00 65 1011.3
20260505093507 46 265 12.0 18.0 0.00 0.00 0.00 63 1011.4
20260505093009 46 269 12.0 18.0 0.00 0.00 0.00 63 1011.5
20260505092506 46 278 11.0 17.0 0.00 0.00 0.00 62 1011.6
20260505092006 46 272 11.0 17.0 0.00 0.00 0.00 62 1011.5
20260505091506 46 277 10.0 17.0 0.00 0.00 0.00 61 1011.5
20260505090506 46 279 8.0 12.0 0.00 0.00 0.00 61 1011.6
20260505090010 46 310 7.0 12.0 0.00 0.00 0.00 61 1011.7
20260505085506 46 265 7.0 14.0 0.00 0.00 0.00 61 1011.7
20260505085006 46 276 8.0 14.0 0.00 0.00 0.00 61 1011.6
20260505084506 46 284 7.0 10.0 0.00 0.00 0.00 61 1011.7
20260505084006 46 291 7.0 12.0 0.00 0.00 0.00 61 1011.7
20260505083507 46 296 6.0 10.0 0.00 0.00 0.00 62 1011.6
20260505083010 46 300 5.0 9.0 0.00 0.00 0.00 62 1011.6
20260505082006 45 293 3.0 7.0 0.00 0.00 0.00 62 1011.3
20260505081505 45 29 3.0 6.0 0.00 0.00 0.00 62 1011.3
20260505081006 45 10 5.0 8.0 0.00 0.00 0.00 63 1011.3
20260505080010 44 14 3.0 10.0 0.00 0.00 0.00 64 1011.2
20260505075506 44 29 3.0 8.0 0.00 0.00 0.00 63 1011.2
20260505075006 44 355 5.0 14.0 0.00 0.00 0.00 63 1011.2
20260505074008 43 322 5.0 9.0 0.00 0.00 0.00 63 1011.3
20260505073509 43 324 7.0 13.0 0.00 0.00 0.00 63 1011.3
20260505073013 42 315 9.0 14.0 0.00 0.00 0.00 62 1011.3
20260505072508 42 316 10.0 14.0 0.00 0.00 0.00 63 1011.6
20260505072008 42 317 7.0 13.0 0.00 0.00 0.00 63 1011.5
20260505071509 42 313 7.0 13.0 0.00 0.00 0.00 64 1011.4
20260505071008 42 324 6.0 13.0 0.00 0.00 0.00 65 1011.4
20260505070509 42 350 4.0 14.0 0.00 0.00 0.00 64 1011.6
20260505070012 41 337 7.0 14.0 0.00 0.00 0.00 64 1011.6
20260505065509 41 322 7.0 18.0 0.00 0.00 0.00 64 1011.6
20260505065009 41 311 12.0 20.0 0.00 0.00 0.00 65 1011.6
20260505064508 41 317 10.0 16.0 0.00 0.00 0.00 65 1011.6
20260505064008 41 314 12.0 17.0 0.00 0.00 0.00 65 1011.6
20260505063012 40 313 11.0 17.0 0.00 0.00 0.00 66 1011.7
20260505062009 40 311 12.0 17.0 0.00 0.00 0.00 67 1011.6
20260505061508 40 317 13.0 18.0 0.00 0.00 0.00 67 1011.6
20260505061009 40 316 13.0 20.0 0.00 0.00 0.00 67 1011.6
20260505060508 40 311 12.0 17.0 0.00 0.00 0.00 68 1011.6
20260505060012 40 311 12.0 17.0 0.00 0.00 0.00 69 1011.6
20260505055510 39 309 11.0 15.0 0.00 0.00 0.00 69 1011.6
20260505055008 39 312 9.0 14.0 0.00 0.00 0.00 69 1011.6
20260505054508 39 312 10.0 16.0 0.00 0.00 0.00 69 1011.5
20260505054009 39 313 7.0 10.0 0.00 0.00 0.00 69 1011.3
20260505053012 39 310 6.0 9.0 0.00 0.00 0.00 69 1011.3
20260505052008 39 315 6.0 9.0 0.00 0.00 0.00 70 1011.4
20260505051508 39 321 6.0 9.0 0.00 0.00 0.00 70 1011.4
20260505051008 39 319 8.0 10.0 0.00 0.00 0.00 70 1011.5
20260505050509 39 312 7.0 10.0 0.00 0.00 0.00 71 1011.5
20260505041508 38 307 8.0 12.0 0.00 0.00 0.00 71 1011.3
20260505041008 39 310 7.0 12.0 0.00 0.00 0.00 71 1011.3
20260505040508 39 313 7.0 10.0 0.00 0.00 0.00 71 1011.1
20260505040011 39 316 7.0 10.0 0.00 0.00 0.00 71 1011.1
20260505035508 39 316 9.0 13.0 0.00 0.00 0.00 71 1011.3
20260505035008 39 313 9.0 13.0 0.00 0.00 0.00 71 1011.3
20260505034008 38 319 9.0 13.0 0.00 0.00 0.00 71 1011.2
20260505033508 38 312 10.0 14.0 0.00 0.00 0.00 71 1011.2
20260505033012 38 318 9.0 13.0 0.00 0.00 0.00 71 1011.3
20260505032008 38 313 12.0 15.0 0.00 0.00 0.00 71 1011.4
20260505031008 38 302 10.0 16.0 0.00 0.00 0.00 70 1011.3
20260505030508 38 302 10.0 14.0 0.00 0.00 0.00 70 1011.2
20260505030012 39 303 10.0 14.0 0.00 0.00 0.00 70 1011.3
20260505025508 39 302 7.0 10.0 0.00 0.00 0.00 70 1011.1
20260505025009 39 295 7.0 12.0 0.00 0.00 0.00 70 1011.1
20260505024508 39 303 8.0 10.0 0.00 0.00 0.00 70 1011.1
20260505024008 39 292 7.0 10.0 0.00 0.00 0.00 70 1011.1
20260505023508 39 299 7.0 10.0 0.00 0.00 0.00 70 1011.3
20260505022508 40 306 7.0 9.0 0.00 0.00 0.00 70 1011.3
20260505022008 40 313 6.0 9.0 0.00 0.00 0.00 70 1011.3
20260505021508 40 314 6.0 9.0 0.00 0.00 0.00 70 1011.2
20260505021008 40 310 5.0 9.0 0.00 0.00 0.00 70 1011.2
20260505020508 40 312 8.0 10.0 0.00 0.00 0.00 70 1011.2
20260505020011 40 318 8.0 10.0 0.00 0.00 0.00 70 1011.1
20260505015008 41 319 7.0 13.0 0.00 0.00 0.00 70 1011.1
20260505014508 41 314 7.0 12.0 0.00 0.00 0.00 71 1010.8
20260505013508 41 317 5.0 9.0 0.00 0.00 0.00 72 1010.9
20260505013012 41 325 4.0 7.0 0.00 0.00 0.00 72 1010.9
20260505012008 42 316 6.0 13.0 0.00 0.00 0.00 73 1010.9
20260505011508 42 319 3.0 7.0 0.00 0.00 0.00 73 1010.8
20260505011008 42 321 4.0 7.0 0.00 0.00 0.00 73 1010.9
20260505010507 42 318 3.0 7.0 0.00 0.00 0.00 73 1010.7
20260505005508 42 322 4.0 7.0 0.00 0.00 0.00 74 1010.8
20260505005008 42 308 2.0 6.0 0.00 0.00 0.00 74 1010.8
20260505004508 42 329 2.0 6.0 0.00 0.00 0.00 74 1010.9
20260505004007 42 338 3.0 7.0 0.00 0.00 0.00 74 1010.7
20260505003507 42 346 4.0 10.0 0.00 0.00 0.00 74 1010.6
20260505003012 41 341 3.0 7.0 0.00 0.00 0.00 74 1010.5
20260505002507 41 297 2.0 8.0 0.00 0.00 0.00 74 1010.4
20260505001508 41 311 9.0 12.0 0.00 0.00 0.00 74 1010.4
20260505000508 41 318 9.0 12.0 0.00 0.00 0.00 75 1010.3
20260505000011 41 319 8.0 12.0 0.00 0.00 0.00 75 1010.3
20260504235508 41 317 6.0 10.0 0.00 0.00 0.00 75 1010.4
20260504235008 42 318 8.0 13.0 0.00 0.00 0.00 75 1010.3
20260504234508 42 320 7.0 10.0 0.00 0.00 0.00 76 1010.3
20260504234008 42 319 7.0 10.0 0.00 0.00 0.00 76 1010.2
20260504233508 42 312 6.0 9.0 0.00 0.00 0.00 76 1010.3
20260504233011 42 311 7.0 13.0 0.00 0.00 0.00 77 1010.2
20260504232008 42 316 9.0 13.0 0.00 0.00 0.00 77 1010.2
20260504231508 42 314 9.0 14.0 0.00 0.00 0.00 77 1010.2
20260504231008 42 313 9.0 15.0 0.00 0.00 0.00 78 1010.1
20260504230508 42 315 10.0 16.0 0.00 0.00 0.00 78 1010.1
20260504230011 42 317 9.0 14.0 0.00 0.00 0.00 79 1010.0
20260504225008 42 310 8.0 14.0 0.00 0.00 0.00 79 1009.9
20260504224508 42 307 9.0 14.0 0.00 0.00 0.00 79 1009.9
20260504224008 42 313 9.0 13.0 0.00 0.00 0.00 79 1009.9